Weather in Glebovskoye

Russia / Yaroslavl Oblast     57°47′43″N   39°56′54″E
temp.,
°C
wind,
m/s
gust,
m/s
humid.,
%
clouds,
%
prec.,
mm/h
press.,
hPa
HPBL,
m
2 december, thu
thu200:00−6wsw51092100 0.2 990538
03:00−6wsw51193100 0.4 992510
06:00−7w6119096 0.1 994522
09:00−10w5119299 0.1 997445
12:00−8wsw51091100 0.0 999541
15:00−7wsw4890100 0.0 999566
18:00−7ssw4892100 0.0 1000391
21:00−6s399585 0.3 999368
3 december, fri
fri300:00−5sse3896100 0.3 998409
03:00−4sse3697100 1.1 997285
06:00−3se3798100 1.3 996272
09:00+1sw51095100 1.8 997751
12:00+1sw51085100 0.1 999601
15:00+1ssw5990100 0.1 1000482
18:000s4992100 0.0 1000299
21:000s4898100 0.4 1000382
4 december, sat
sat400:000sse2599100 2.3 998238
03:000sw2699100 4.1 997337
06:00−1wsw51093100 0.9 997654
09:00−4sw5129060 0.9 999382
12:00−3sw71391100 0.1 999840
15:00−3wsw6119298 0.3 1001798
18:00−5wsw6129294 0.1 1004571
21:00−5wsw5119298 0.2 1007542
5 december, sun
sun500:00−7w5109392 0.0 1009317
03:00−8nw259697 0.3 1013211
06:00−12n249683 0.1 1015125
09:00−16n119791 0.1 101816
12:00−13nne228855 0.0 1021155
15:00−13ne1293100 0.0 102243
18:00−16ne25968 0.0 102473
21:00−16ene3694100 0.0 1026173
6 december, mon
mon600:00−16ene3792100 0.0 1028204
03:00−16ene4890100 0.0 1029258
06:00−15ene4989100 0.0 1030276
09:00−19ene4889100 0.0 1031225
12:00−17e4784100 0.0 1031222
15:00−16e4988100 0.0 1030275
18:00−15e51190100 0.0 1030294
21:00−13e51190100 0.0 1028338